SL-3 DEB

Satellite information

Favourite Embed

Satellite Type and Status

DEBRISIN ORBIT

Key statistics

Satellite SL-3 DEB at a glance.

Uptime

17158

Days in orbit

Revolutions

≈ 14.2

Per day

Orbit

LEO

Low Earth Orbit

Inclination

81.2

Latest

Satellite identification and parameters

Extended collection of information and parameters for SL-3 DEB.

Object identification

Identified? True

Debris? True

Object name: SL-3 DEB

International designator: 1978-121C

Object number (NORAD): 19643

Object ID (CCSDS): 19643

Country: COMMONWEALTH OF INDEPENDENT STATES (CIS)

Current information (Y/N): Y

RCS size: SMALL

Orbital parameters

Period: 101.701 minutes

Inclination: 81.2395 deg

SMA: 7217.321 km

Apoapsis: 885.791 km

Periapsis: 792.581 km

RAAN: 0.2261 deg

Eccentricy: 0.00645739

Argument of periapsis: 6.7682 deg

Mean anomaly: 122.2648 deg

Mean motion: 14.15919956 rev/day

Mean motion (dot): 0.00000265 rev/day2

B* drag term: 0.00012581974 1/REarth

Two-line elements (TLE)

Creation date: Dec. 14, 2025, 3:07 a.m.

Reference frame: TEME

Reference center: EARTH

Epoch: Dec. 13, 2025, 1 p.m. UTC

TLE line 0: 0 SL-3 DEB

TLE line 1: 1 19643U 78121C 25347.54227103 .00000265 00000-0 12582-3 0 9991

TLE line 2: 2 19643 81.2395 0.2261 0064574 6.7682 122.2648 14.15919956917258

Live tracking on map

Real-time ground track for satellite SL-3 DEB.

In-orbit conjunctions

A list of the most updated potential collisions computed for object SL-3 DEB.

Target Orbit TCA Probability of collision Miss distance Type
FENGYUN 1C DEB * SSO 2025-09-02 07:34:16 0.0001456691 209.0 (m) DEBRIS
FENGYUN 1C DEB SSO 2025-06-25 16:08:44 0.0002626086 94.0 (m) DEBRIS
FENGYUN 1C DEB SSO 2024-11-16 04:14:24 0.0002205419 251.0 (m) DEBRIS
NOAA 16 DEB SSO 2024-06-12 01:20:18 0.0001303436 202.0 (m) DEBRIS

Associated space launch

Astrophysics (not confirmed) satellite

SL-3 DEB was lifted into orbit during the mission ‘Vostok 8A92M | Astrofizika’, on board a Vostok 8A92M space rocket.

The launch took place on Dec. 23, 1978, 8:39 a.m. from 43/3 (43L).

For more information about the launch, click the button.

Launch to space Vostok 8A92M | Astrofizika
Vostok 8A92M | Astrofizika

Agency: N/A

Status: Launch Successful

Launch date: Dec. 23, 1978, 8:39 a.m. UTC

Rocket: Vostok 8A92M

Launch pad: 43/3 (43L)

Location: Plesetsk Cosmodrome, Russian Federation

...

Latest news about this satellite

There are no fresh news available about this satellite. Check back as we update our databases every day.


Newsletter sign-up

Weekly statistics, charts and insights to help you stay on top of the space industry.